This demonstration page uses our WeatherBlox Daily Observations layout. Learn more.

Left ArrowRight Arrow

34.02893, -84.19858

Hourly Observations for March 9, 2022

Temp ( °F °C ) Dew Point ( °F °C ) Humidity (%) Winds ( mph kmh ) Pressure ( in mb ) Visibility ( mi km ) Precip ( " mm )
12:04 am 00:04 Cloudy with Mist and Fog 52 11.1 51 10.6 97 97 Calm 29.95 1014 2 3 0.00 0.00
12:37 am 00:37 Cloudy with Mist and Fog 52 11.1 52 11.1 100 100 Calm 29.92 1013 2 3 0.00 0.00
12:46 am 00:46 Cloudy with Mist and Fog 52 11.1 52 11.1 100 100 Calm 29.92 1013 2 3 0.00 0.00
12:53 am 00:53 Cloudy with Mist and Fog 52 11.1 52 11.1 100 100 Calm 29.91 1013 3 5 0.00 0.00
1:53 am 01:53 Cloudy with Mist and Fog 52 11.1 52 11.1 100 100 Calm 29.87 1012 5 8 0.01 0.25
2:53 am 02:53 Cloudy with Light Rain 53 11.7 52 11.1 96 96 Calm 29.85 1011 6 10 0.00 0.00
3:53 am 03:53 Cloudy with Mist and Fog 53 11.7 53 11.7 100 100 SSE 3 6 29.82 1010 5 8 0.00 0.00
4:17 am 04:17 Cloudy with Rain 53 11.7 52 11.1 96 96 NW 9 15 29.83 1010 2 3 0.04 1.02
4:27 am 04:27 Cloudy with Light Rain 53 11.7 52 11.1 96 96 NNW 8 13 29.83 1010 4 6 0.05 1.27
4:53 am 04:53 Cloudy with Light Rain 52 11.1 51 10.6 97 97 NNE 6 9 29.83 1010 4 6 0.06 1.52
5:28 am 05:28 Cloudy with Nearby Thunderstorms 52 11.1 51 10.6 97 97 N 9 15 29.86 1011 8 13 0.02 0.51
5:43 am 05:43 Cloudy with Nearby Thunderstorms 51 10.6 51 10.6 100 100 VRB 5 7 29.83 1010 4 6 0.07 1.78
5:51 am 05:51 Cloudy with Rain 52 11 52 11 100 100 ESE 7 11 29.83 1010 4 6 0.09 2.29
5:53 am 05:53 Cloudy with Rain 51 10.6 51 10.6 100 100 ESE 8 13 29.82 1010 5 8 0.10 2.54
6:05 am 06:05 Cloudy with Thunderstorms 52 11.1 51 10.6 97 97 VRB 3 6 29.84 1010 4 6 0.04 1.02
6:11 am 06:11 Cloudy with Strong Thunderstorms 52 11.1 51 10.6 97 97 Calm 29.85 1011 3 4 0.09 2.29
6:15 am 06:15 Cloudy with Strong Thunderstorms 52 11.1 51 10.6 97 97 N 6 9 29.85 1011 3 4 0.12 3.05
6:20 am 06:20 Cloudy with Heavy Rain 52 11.1 51 10.6 97 97 VRB 6 9 29.83 1010 2 3 0.18 4.57
6:23 am 06:23 Cloudy with Heavy Rain 52 11.1 51 10.6 97 97 SE 7 11 29.84 1010 2 3 0.24 6.10
6:33 am 06:33 Cloudy with Heavy Rain 52 11.1 52 11.1 100 100 VRB 3 6 29.85 1011 1 1 0.57 14.48
6:39 am 06:39 Cloudy with Heavy Rain 51 10.6 51 10.6 100 100 Calm 29.86 1011 1 2 0.61 15.49
6:45 am 06:45 Cloudy with Heavy Rain 52 11.1 52 11.1 100 100 Calm 29.87 1011 2 3 0.65 16.51
6:53 am 06:53 Cloudy with Rain 52 11.1 52 11.1 100 100 Calm 29.85 1011 2 3 0.69 17.53
6:58 am 06:58 Cloudy with Rain 52 11.1 52 11.1 100 100 Calm 29.86 1011 2 3 0.02 0.51
7:53 am 07:53 Cloudy with Light Rain 52 11.1 52 11.1 100 100 Calm 29.87 1011 2 2 0.07 1.78
7:58 am 07:58 Cloudy with Light Rain 53 11.7 52 11.1 96 96 Calm 29.85 1011 2 3 0.00 0.00
8:18 am 08:18 Cloudy with Light Rain 53 11.7 52 11.1 96 96 Calm 29.86 1011 6 10 0.02 0.51
8:50 am 08:50 Cloudy with Mist and Fog 54 12 54 12 100 100 Calm 29.87 1012 3 4 0.02 0.51
8:53 am 08:53 Cloudy with Mist and Fog 53 11.7 53 11.7 100 100 Calm 29.88 1012 3 4 0.02 0.51
9:53 am 09:53 Cloudy with Mist and Fog 53 11.7 52 11.1 96 96 NW 12 19 29.89 1012 3 4 0.00 0.00
10:53 am 10:53 Cloudy with Mist and Fog 55 12.8 52 11.1 90 90 W 8 13 29.89 1012 3 4 0.00 0.00
11:00 am 11:00 Cloudy with Mist and Fog 55 12.8 52 11.1 90 90 WNW 10 17 29.90 1013 10 16 0.00 0.00
11:30 am 11:30 Cloudy 55 12.8 51 10.6 87 87 W 12 19 29.90 1013 10 16 0.00 0.00
11:46 am 11:46 Cloudy 56 13.3 51 10.6 84 84 W 12 19 29.91 1013 10 16 0.00 0.00
11:53 am 11:53 Cloudy 55 12.8 50 10 83 83 WNW 13 20 29.90 1013 10 16 0.00 0.00
12:19 pm 12:19 Cloudy 55 12.8 51 10.6 87 87 NW 12 19 29.90 1013 10 16 0.00 0.00
12:53 pm 12:53 Cloudy 54 12.2 50 10 87 87 NW 13 20 29.91 1013 10 16 0.00 0.00
1:03 pm 13:03 Cloudy 53 11.7 49 9.4 86 86 NW 14 22 29.90 1013 10 16 0.00 0.00
1:14 pm 13:14 Cloudy 53 11.7 49 9.4 86 86 NW 10 17 29.91 1013 10 16 0.00 0.00
1:53 pm 13:53 Cloudy 52 11.1 49 9.4 89 89 NW 10 17 29.90 1012 10 16 0.00 0.00
2:00 pm 14:00 Cloudy 52 11.1 49 9.4 89 89 NNW 9 15 29.90 1012 10 16 0.00 0.00
2:23 pm 14:23 Mostly Cloudy 54 12.2 48 8.9 80 80 W 10 17 29.90 1013 10 16 0.00 0.00
2:53 pm 14:53 Cloudy 54 12.2 47 8.3 77 77 NW 10 17 29.91 1013 10 16 0.00 0.00
3:53 pm 15:53 Cloudy 54 12.2 46 7.8 75 75 NW 9 15 29.91 1013 10 16 0.00 0.00
4:41 pm 16:41 Mostly Sunny 53 11.7 44 6.7 72 72 WNW 8 13 29.92 1013 10 16 0.00 0.00
4:53 pm 16:53 Mostly Sunny 53 11.7 45 7.2 74 74 WNW 7 11 29.93 1013 10 16 0.00 0.00
5:53 pm 17:53 Mostly Sunny 51 10.6 44 6.7 77 77 NW 9 15 29.94 1014 10 16 0.00 0.00
6:53 pm 18:53 Clear 50 10 43 6.1 77 77 WNW 5 7 29.94 1014 10 16 0.00 0.00
7:53 pm 19:53 Clear 50 10 42 5.6 74 74 NW 5 7 29.93 1014 10 16 0.00 0.00
8:53 pm 20:53 Clear 49 9.4 42 5.6 77 77 WNW 6 9 29.95 1014 10 16 0.00 0.00
9:53 pm 21:53 Clear 49 9.4 42 5.6 77 77 W 6 9 29.96 1015 10 16 0.00 0.00
10:53 pm 22:53 Clear 49 9.4 42 5.6 77 77 Calm 29.96 1015 10 16 0.00 0.00
11:53 pm 23:53 Clear 47 8.3 42 5.6 83 83 SW 3 6 29.97 1015 10 16 0.00 0.00

Powered by AerisWeather